Weather in Rasskazovo

Russia / Tambov Oblast     52°39′13″N   41°52′27″E
temp.,
°C
wind,
m/s
gust,
m/s
humid.,
%
clouds,
%
prec.,
mm/h
press.,
hPa
HPBL,
m
23 october, sat
sat2300:00+9wsw412675 0.0 1010442
03:00+8sw412725 0.0 1010350
06:00+6sw310803 0.0 1010256
09:00+8sw411660 0.0 1012513
12:00+12wsw614395 0.0 10121609
15:00+13wsw4104588 0.0 10111762
18:00+9w3878100 0.8 1012747
21:00+7w411695 1.6 1012446
24 october, sun
sun2400:00+5wsw410724 0.0 1013413
03:00+4w410815 0.0 1014400
06:00+3wsw310885 0.0 1015361
09:00+4wsw410735 0.0 1016436
12:00+8wsw6951100 0.0 10161686
15:00+8w595898 0.0 10161502
18:00+5wnw497587 0.3 10171079
21:00+3wnw5995100 0.4 1018720
25 october, mon
mon2500:00+3nw597775 0.2 1019926
03:00+1nnw697689 0.3 10211085
06:000nnw5107791 0.0 10241081
09:000nnw5117415 0.1 1026784
12:00+3nnw58515 0.0 10281094
15:00+4nnw474576 0.0 10281201
18:00+1nw266012 0.0 1030123
21:00−1wnw226693 0.0 103127
26 october, tue
tue2600:00−1wsw24706 0.0 103167
03:00−1wsw37733 0.0 1031173
06:00−1sw310720 0.0 1030248
09:00+1wsw4116160 0.0 1030360
12:00+5wsw5946100 0.0 1029598
15:00+6wsw5104599 0.0 1028724
18:00+2sw31161100 0.0 1028254
21:00+2sw4126196 0.0 1028294
27 october, wed
wed2700:00+2sw4126297 0.0 1027292
03:00+1sw4126474 0.0 1027287
06:000sw4126388 0.0 1026278
09:00+3sw5135055 0.0 1025394
12:00+8sw6123582 0.0 1024701
15:00+9sw61132100 0.0 1021935
18:00+6sw51337100 0.0 1021544
21:00+6sw51339100 0.0 1019609